Regional Weather Roundup
Issued by NWS New Orleans/Baton Rouge, LA

Home | Current Version | Previous Version | Text Only | Print | Product List | Glossary On
Versions: 1 2 3 4 5 6 7 8 9 10 11 12 13 14 15 16 17 18 19 20 21 22 23 24 25 26 27 28 29 30 31 32 33 34 35 36 37 38 39 40 41 42 43 44 45 46 47 48 49 50
278
ASUS44 KLIX 180805
RWRLIX
NEW ORLEANS REGIONAL WEATHER ROUNDUP
NATIONAL WEATHER SERVICE NEW ORLEANS LA
300 AM CDT THU SEP 18 2014

NOTE: "FAIR" INDICATES FEW OR NO CLOUDS BELOW 12,000 FEET WITH NO
      SIGNIFICANT WEATHER AND/OR OBSTRUCTIONS TO VISIBILITY.
      SKY/WX - SKY CONDITION AND SIGNIFICANT WEATHER.
      TMP - AIR TEMPERATURE.     DP    - DEWPOINT TEMPERATURE.
      RH  - RELATIVE HUMIDITY.   PRES  - PRESSURE.
      HI  - HEAT INDEX.          WCI   - WIND CHILL INDEX.

*  THESE STATIONS ARE NOT NWS OR FAA STATIONS AND ARE NOT UNDER
   NWS QUALITY CONTROL.

LAZ038-040-048-061>063-065>067-069-180900-
SOUTHEAST LOUISIANA

CITY           SKY/WX    TMP DP  RH WIND       PRES   REMARKS
N.O. AUDUBON     N/A     76  75  98 MISG        N/A
N.O. INTL ARPT PTCLDY    76  72  87 CALM      29.89F
N.O. LAKEFRONT CLEAR     79  74  84 W3        29.90F
N.O. DOWNTOWN*   N/A     79  70  73 CALM      29.90S
SLIDELL        CLEAR     73  70  90 CALM      29.89F
BATON ROUGE    PTCLDY    75  73  93 CALM      29.89F
BOOTHVILLE     PTCLDY    79  76  90 CALM      29.90S
BELLE CHASSE   PTCLDY    73  69  87 CALM      29.89F
BOGALUSA*        N/A     73  69  89 N3        29.92S FOG
GALLIANO*      NOT AVBL
NEW ROADS*     CLOUDY    72  71  98 CALM      29.89F FOG
GONZALES*        N/A     72  72 100 CALM      29.89R
HAMMOND*       CLEAR     73  70  88 CALM      29.91S
HOUMA*           N/A    N/A N/A N/A CALM      29.89F FOG
PORT FOURCHON* SUNNY     79  75  89 N5        29.93S

$$

MSZ070-080>082-180900-
SOUTHERN MISSISSIPPI

CITY           SKY/WX    TMP DP  RH WIND       PRES   REMARKS
MCCOMB         MOCLDY    72  70  93 CALM      29.92S
GULFPORT       MOCLDY    74  72  93 CALM      29.89F
BILOXI         MOCLDY    77  73  87 VRB1      29.90F
PASCAGOULA     CLOUDY    72  71  97 CALM      29.90S

$$

COASTAL OBSERVATIONS
LAKE AND NEARSHORE STATIONS

STATION/POSITION TIME  TEMP    WIND        PRES    WAVE
                       AIR SEA DIR/SP/G            HT/PER
                 (UTC) (F)     (DEG/KT/KT) (MB)    (FT/S)
PASCAGOULA       0800   76     340/  6/  7 1011.9
WAVELAND YACHT   0800   77     310/  2/  2 1011.8
GRAND ISLE       0800   81 87  360/  5/  7 1012.8
SOUTHWEST PASS   0800   82 91  310/  3/  4 1012.8
NEW CANAL        0800   79 83  230/  1/  2 1012.8
SHELL BEACH      0800   79 81  260/  4/  5 1012.3

OFFSHORE STATIONS

STATION/POSITION TIME  TEMP    WIND        PRES    WAVE
                       AIR SEA DIR/SP/G            HT/PER
                 (UTC) (F)     (DEG/KT/KT) (MB)    (FT/S)
64 S DAUPHIN ISL 0737   82 85  310/  4/  6 1012.8    1/ 4

$$




USA.gov is the U.S. government's official web portal to all federal, state and local government web resources and services.